Location: Capannuccia
(43.7000°N, 11.3000°E)
Time: 03:07:34
(UTC+00:00)

Meteor 1-11 - Pass Details

Date: 07 June 2020
Orbit: 843 x 885 km, 81.2° (Epoch: 06 July)

Event Time Altitude Azimuth Distance (km) Brightness Sun altitude
Exits shadow 01:03:54 33° 223° (SW) 1,393 4.8 -18.9°
Maximum altitude 01:06:12 54° 284° (WNW) 1,015 4.5 -18.7°
Drops below altitude 10° 01:11:42 10° 2° (N) 2,472 7.6 -18.2°
Sets 01:14:11 0° 7° (N) 3,412 8.6 -18.0°
